Location: Charbonni�res
(45.9952°N, 2.9982°E)
Time: 01:05:05
(UTC+00:00)

Sich 1 - Visible Passes

Search period start: 11 April 2021 00:00
Search period end: 21 April 2021 00:00
Orbit: 593 x 625 km, 82.5° (Epoch: 10 April)

Date Brightness Start Highest point End Pass type
(mag) Time Alt. Az. Time Alt. Az. Time Alt. Az.
11 Apr 5.7 23:53:23 10° N 23:54:27 17° N 23:54:27 17° N visible
12 Apr 5.8 22:31:14 10° NNE 22:31:49 12° NE 22:31:49 12° NE visible
13 Apr 5.7 00:07:51 10° NNW 00:08:46 16° NNW 00:08:46 16° NNW visible
13 Apr 5.5 22:44:56 10° NNE 22:46:08 16° NNE 22:46:08 16° NNE visible
14 Apr 5.8 00:22:31 10° NNW 00:23:05 13° NW 00:23:05 13° NW visible
14 Apr 5.4 22:58:57 10° N 23:00:28 20° NNE 23:00:28 20° NNE visible
15 Apr 5.3 23:13:10 10° N 23:14:48 23° N 23:14:48 23° N visible
16 Apr 5.6 21:51:31 10° NE 21:52:11 12° NE 21:52:11 12° NE visible
16 Apr 5.3 23:27:33 10° NNW 23:29:09 22° NNW 23:29:09 22° NNW visible
17 Apr 5.3 22:04:56 10° NNE 22:06:32 17° NE 22:06:32 17° NE visible
17 Apr 5.4 23:42:07 10° NNW 23:43:30 19° NW 23:43:30 19° NW visible
18 Apr 4.9 22:18:50 10° N 22:20:54 24° NNE 22:20:54 24° NNE visible
18 Apr 5.6 23:56:56 10° NW 23:57:52 14° NW 23:57:52 14° NW visible
19 Apr 4.7 22:32:58 10° N 22:35:16 30° N 22:35:16 30° N visible
20 Apr 5.5 21:12:10 10° NE 21:12:42 11° NE 21:12:42 11° NE visible
20 Apr 4.6 22:47:17 10° N 22:49:39 32° NNW 22:49:39 32° NNW visible
